Cardiff-Wales, United Kingdom

10:21 PM BST on July 26, 2017 (GMT +0100)
Cardiff

Weather History for EGFF - January, 2013

Change the Weather History Date:

Friday, January 18, 2013

  Actual Average Record
Temperature  
Mean Temperature 36 °F -  
Max Temperature 41 °F 44 °F 55 °F (2007)
Min Temperature 32 °F 35 °F 30 °F (2000)
Degree Days  
Heating Degree Days 28    
Moisture  
Dew Point 32 °F    
Average Humidity 97    
Maximum Humidity 100    
Minimum Humidity 70    
Precipitation  
Precipitation 0.00 in 0.10 in - ()
Sea Level Pressure  
Sea Level Pressure 29.48 in    
Wind  
Wind Speed 17 mph ()    
Max Wind Speed 24 mph    
Max Gust Speed -    
Visibility 2.8 miles    
Events Rain , Snow    
Averages and records for this station are not official NWS values.
T = Trace of Precipitation, MM = Missing Value Source: Averaged Metar Reports

Daily Weather History Graph

Daily Weather History Graph

Search for Another Location

Airport or City:

Trip Planner

Search our weather history database for the weather conditions in past years. The results will help you decide how hot, cold, wet, or windy it might be!

Date:

Astronomy

Jan. 18, 2013 Rise Set
Actual Time 8:09 AM GMT 4:39 PM GMT
Civil Twilight 7:31 AM GMT 5:17 PM GMT
Nautical Twilight 6:49 AM GMT 5:58 PM GMT
Astronomical Twilight 6:09 AM GMT 6:38 PM GMT
Moon 10:43 AM GMT (1/18) 12:08 AM GMT (1/18)
Length of Visible Light 9h 46m
Length of Day
8h 30m
Waxing Crescent, 45% of the Moon is Illuminated
Jan 18
Waxing Crescent
Jan 18
First Quarter
Jan 27
Full
Feb 3
Last Quarter
Feb 10
New

Hourly Weather History & Observations

Time (GMT) Temp. Windchill Dew Point Humidity Pressure Visibility Wind Dir Wind Speed Gust Speed Precip Events Conditions
12:20 AM 41.0 °F 33.1 °F 32.0 °F 70% 29.74 in 6.2 mi SE 15.0 mph - N/A   Scattered Clouds
12:50 AM 39.2 °F 29.8 °F 32.0 °F 75% 29.71 in 6.2 mi SE 18.4 mph - N/A   Mostly Cloudy
1:20 AM 39.2 °F 30.2 °F 32.0 °F 75% 29.71 in 6.2 mi SE 17.3 mph - N/A Rain Light Rain
1:50 AM 37.4 °F 26.9 °F 32.0 °F 81% 29.71 in 5.0 mi SSE 20.7 mph - N/A Rain , Snow Light Rain
2:20 AM 37.4 °F 27.5 °F 33.8 °F 87% 29.68 in 4.3 mi SSE 18.4 mph - N/A Rain Light Rain
2:50 AM 35.6 °F 24.2 °F 33.8 °F 93% 29.68 in 3.1 mi SE 21.9 mph - N/A Rain Rain
3:20 AM 35.6 °F 24.0 °F 33.8 °F 93% 29.65 in 1.9 mi SE 23.0 mph - N/A Rain Rain
3:50 AM 33.8 °F 21.6 °F 33.8 °F 100% 29.65 in 1.2 mi SE 23.0 mph - N/A Snow Snow
4:20 AM 33.8 °F 22.2 °F 32.0 °F 93% 29.65 in 1.1 mi SE 20.7 mph - N/A Snow Snow
4:50 AM 32.0 °F 19.8 °F 32.0 °F 100% 29.62 in 0.9 mi SE 20.7 mph - N/A Snow Snow
5:20 AM 32.0 °F 18.9 °F 32.0 °F 100% 29.59 in 0.6 mi ESE 24.2 mph - N/A Snow Snow
5:50 AM 32.0 °F 18.9 °F 32.0 °F 100% 29.59 in 0.8 mi ESE 24.2 mph - N/A Snow Snow
6:20 AM 32.0 °F 19.5 °F 32.0 °F 100% 29.59 in 0.6 mi SE 21.9 mph - N/A Snow Snow
6:50 AM 32.0 °F 19.5 °F 32.0 °F 100% 29.56 in 0.4 mi ESE 21.9 mph - N/A Snow Heavy Snow
7:20 AM 32.0 °F 20.1 °F 32.0 °F 100% 29.56 in 0.6 mi ESE 19.6 mph - N/A Snow Light Snow
7:50 AM 32.0 °F 18.9 °F 32.0 °F 100% 29.53 in 0.9 mi ESE 24.2 mph - N/A Snow Light Snow
8:20 AM 32.0 °F 19.5 °F 32.0 °F 100% 29.53 in 0.9 mi ESE 21.9 mph - N/A Snow Snow
8:50 AM 32.0 °F 20.1 °F 32.0 °F 100% 29.53 in 1.2 mi ESE 19.6 mph - N/A Snow Light Snow
9:20 AM 32.0 °F 20.1 °F 32.0 °F 100% 29.53 in - ESE 19.6 mph - N/A Snow Light Snow
9:50 AM 32.0 °F 20.5 °F 32.0 °F 100% 29.53 in 1.2 mi ESE 18.4 mph - N/A Snow Light Snow
10:20 AM 32.0 °F 20.5 °F 32.0 °F 100% 29.50 in 2.8 mi ESE 18.4 mph - N/A Snow Light Snow
10:50 AM 32.0 °F 19.2 °F 32.0 °F 100% 29.47 in 1.2 mi ESE 23.0 mph - N/A Snow Light Snow
11:20 AM 32.0 °F 20.1 °F 32.0 °F 100% 29.47 in 2.5 mi ESE 19.6 mph - N/A Snow Light Snow
11:50 AM 32.0 °F 19.5 °F 32.0 °F 100% 29.44 in 2.8 mi ESE 21.9 mph - N/A Snow Light Snow
12:20 PM 32.0 °F 20.1 °F 32.0 °F 100% 29.44 in 1.7 mi East 19.6 mph - N/A Snow Light Snow
12:50 PM 32.0 °F 20.5 °F 32.0 °F 100% 29.42 in 1.7 mi East 18.4 mph - N/A Snow Light Snow
1:20 PM 32.0 °F 21.2 °F 32.0 °F 100% 29.42 in 3.1 mi East 16.1 mph - N/A Snow Light Snow
1:50 PM 32.0 °F 21.6 °F 32.0 °F 100% 29.39 in - East 15.0 mph - N/A Snow Light Snow
2:20 PM 32.0 °F 21.6 °F 32.0 °F 100% 29.39 in - East 15.0 mph - N/A Snow Light Snow
2:50 PM 32.0 °F 22.1 °F 32.0 °F 100% 29.39 in 3.1 mi East 13.8 mph - N/A Snow Light Snow
3:20 PM 32.0 °F 21.6 °F 32.0 °F 100% 29.36 in 5.6 mi East 15.0 mph - N/A Snow Light Snow
3:50 PM 32.0 °F 22.1 °F 32.0 °F 100% 29.36 in 3.7 mi East 13.8 mph - N/A Snow Light Snow
4:20 PM 32.0 °F 23.0 °F 32.0 °F 100% 29.36 in - East 11.5 mph - N/A Snow Light Snow
4:50 PM 32.0 °F 22.5 °F 32.0 °F 100% 29.36 in - East 12.7 mph - N/A Snow Light Snow
5:20 PM 32.0 °F 22.1 °F 32.0 °F 100% 29.36 in - East 13.8 mph - N/A Snow Light Snow
5:50 PM 32.0 °F 21.6 °F 32.0 °F 100% 29.36 in - East 15.0 mph - N/A Snow Light Snow
6:20 PM 32.0 °F 22.1 °F 32.0 °F 100% 29.36 in 2.2 mi East 13.8 mph - N/A Snow Light Snow
6:50 PM 32.0 °F 21.6 °F 32.0 °F 100% 29.36 in 3.1 mi East 15.0 mph - N/A   Mostly Cloudy
7:20 PM 32.0 °F 22.1 °F 32.0 °F 100% 29.36 in - East 13.8 mph - N/A Snow Light Snow
7:50 PM 32.0 °F 22.1 °F 32.0 °F 100% 29.36 in - East 13.8 mph - N/A Snow Light Snow
8:20 PM 32.0 °F 21.6 °F 32.0 °F 100% 29.36 in - East 15.0 mph - N/A Snow Light Snow
8:50 PM 32.0 °F 21.6 °F 32.0 °F 100% 29.36 in 3.1 mi East 15.0 mph - N/A   Mostly Cloudy
9:20 PM 32.0 °F 21.6 °F 32.0 °F 100% 29.36 in 4.3 mi East 15.0 mph - N/A   Overcast
9:50 PM 32.0 °F 21.6 °F 32.0 °F 100% 29.36 in 5.0 mi East 15.0 mph - N/A   Overcast
10:20 PM 32.0 °F 22.1 °F 32.0 °F 100% 29.36 in 5.0 mi East 13.8 mph - N/A   Mostly Cloudy
10:50 PM 32.0 °F 21.6 °F 30.2 °F 93% 29.39 in 5.0 mi East 15.0 mph - N/A   Mostly Cloudy
11:20 PM 32.0 °F 21.2 °F 30.2 °F 93% 29.39 in 3.7 mi East 16.1 mph - N/A   Mostly Cloudy
11:50 PM 32.0 °F 22.1 °F 32.0 °F 100% 29.36 in 3.7 mi East 13.8 mph - N/A   Mostly Cloudy